EW5967 Weather Reports


Display with metric or nautical units.
time (UTC)temp
F
wind
direction
speed
MPH
gust
MPH
rain 1hr
in
rain 24hr
in
rain mn
in
humidity
%
barometer
mb
20260831134523 75 249 0.0 2.0 0.00 0.00 0.00 36 1005.5
20260831134022 75 249 0.0 2.0 0.00 0.00 0.00 36 1005.4
20260831133521 75 249 0.0 2.0 0.00 0.00 0.00 37 1005.3
20260831133027 75 249 0.0 2.0 0.00 0.00 0.00 37 1005.2
20260831132520 74 249 1.0 2.0 0.00 0.00 0.00 38 1005.2
20260831132020 75 249 0.0 2.0 0.00 0.00 0.00 37 1005.1
20260831131518 75 249 0.0 1.0 0.00 0.00 0.00 37 1005.1
20260831131020 75 249 0.0 2.0 0.00 0.00 0.00 36 1005.0
20260831130517 75 249 0.0 3.0 0.00 0.00 0.00 36 1005.0
20260831130016 75 249 0.0 3.0 0.00 0.00 0.00 36 1004.9
20260831125517 75 249 1.0 3.0 0.00 0.00 0.00 35 1005.0
20260831125016 75 249 0.0 2.0 0.00 0.00 0.00 35 1005.0
20260831124519 76 249 0.0 2.0 0.00 0.00 0.00 33 1005.0
20260831124014 76 249 0.0 1.0 0.00 0.00 0.00 31 1004.9
20260831123513 76 249 0.0 2.0 0.00 0.00 0.00 31 1004.9
20260831123017 76 249 0.0 1.0 0.00 0.00 0.00 31 1004.7
20260831122516 76 249 0.0 1.0 0.00 0.00 0.00 32 1004.8
20260831122013 76 249 0.0 2.0 0.00 0.00 0.00 31 1004.6
20260831121514 76 249 0.0 2.0 0.00 0.00 0.00 32 1004.6
20260831121013 76 249 0.0 2.0 0.00 0.00 0.00 32 1004.7
20260831120512 76 249 0.0 2.0 0.00 0.00 0.00 33 1004.7
20260831120011 76 249 0.0 2.0 0.00 0.00 0.00 34 1004.7
20260831115511 76 249 0.0 2.0 0.00 0.00 0.00 34 1004.8
20260831115015 76 249 0.0 2.0 0.00 0.00 0.00 34 1004.8
20260831114509 77 249 0.0 0.0 0.00 0.00 0.00 33 1004.7
20260831114009 77 249 0.0 0.0 0.00 0.00 0.00 33 1004.7
20260831113507 77 249 0.0 0.0 0.00 0.00 0.00 33 1004.7
20260831113009 77 249 0.0 0.0 0.00 0.00 0.00 33 1004.7
20260831112505 78 249 0.0 0.0 0.00 0.00 0.00 33 1004.6
20260831112004 78 249 0.0 1.0 0.00 0.00 0.00 32 1004.6
20260831111504 78 249 0.0 2.0 0.00 0.00 0.00 31 1004.6
20260831111003 78 249 0.0 2.0 0.00 0.00 0.00 29 1004.5
20260831110502 78 249 0.0 2.0 0.00 0.00 0.00 28 1004.5
20260831110004 78 249 0.0 0.0 0.00 0.00 0.00 27 1004.5
20260831105501 79 249 0.0 0.0 0.00 0.00 0.00 27 1004.4
20260831105043 79 249 0.0 0.0 0.00 0.00 0.00 27 1004.4
20260831104611 79 249 0.0 0.0 0.00 0.00 0.00 27 1004.4
20260831104100 79 249 0.0 1.0 0.00 0.00 0.00 27 1004.4
20260831103559 79 249 0.0 2.0 0.00 0.00 0.00 27 1004.3
20260831103059 79 249 0.0 2.0 0.00 0.00 0.00 27 1004.4
20260831102559 80 249 1.0 3.0 0.00 0.00 0.00 26 1004.3
20260831102058 80 249 1.0 3.0 0.00 0.00 0.00 26 1004.2
20260831101558 80 249 0.0 3.0 0.00 0.00 0.00 26 1004.2
20260831101058 80 249 1.0 3.0 0.00 0.00 0.00 26 1004.1
20260831100557 80 249 0.0 3.0 0.00 0.00 0.00 26 1004.1
20260831100116 80 249 1.0 7.0 0.00 0.00 0.00 26 1004.1
20260831095557 80 248 3.0 7.0 0.00 0.00 0.00 26 1004.1
20260831095057 79 245 0.0 3.0 0.00 0.00 0.00 27 1004.2
20260831094558 79 245 1.0 4.0 0.00 0.00 0.00 27 1004.3
20260831094057 79 245 1.0 2.0 0.00 0.00 0.00 27 1004.2
20260831093657 79 245 1.0 2.0 0.00 0.00 0.00 27 1004.2
20260831093101 79 245 0.0 2.0 0.00 0.00 0.00 27 1004.3
20260831092557 79 245 0.0 2.0 0.00 0.00 0.00 27 1004.3
20260831092056 79 245 0.0 2.0 0.00 0.00 0.00 27 1004.2
20260831091555 79 246 1.0 3.0 0.00 0.00 0.00 27 1004.1
20260831091055 79 245 1.0 3.0 0.00 0.00 0.00 27 1004.1
20260831090556 79 245 1.0 3.0 0.00 0.00 0.00 27 1004.1
20260831090054 79 245 1.0 4.0 0.00 0.00 0.00 28 1004.1
20260831085554 79 245 1.0 3.0 0.00 0.00 0.00 28 1004.1
20260831085053 79 245 0.0 2.0 0.00 0.00 0.00 27 1004.2
20260831084559 80 245 0.0 2.0 0.00 0.00 0.00 27 1004.2
20260831084050 80 245 0.0 2.0 0.00 0.00 0.00 27 1004.2
20260831083551 80 245 0.0 3.0 0.00 0.00 0.00 27 1004.1
20260831083049 80 245 0.0 2.0 0.00 0.00 0.00 26 1004.2
20260831082549 80 245 0.0 2.0 0.00 0.00 0.00 26 1004.1
20260831082048 80 245 0.0 1.0 0.00 0.00 0.00 26 1004.2
20260831081548 80 245 0.0 1.0 0.00 0.00 0.00 26 1004.2
20260831081048 80 245 0.0 1.0 0.00 0.00 0.00 26 1004.2
20260831080548 80 245 0.0 2.0 0.00 0.00 0.00 26 1004.2
20260831080055 80 245 0.0 2.0 0.00 0.00 0.00 26 1004.2
20260831075548 80 245 0.0 2.0 0.00 0.00 0.00 26 1004.2
20260831075047 81 245 0.0 2.0 0.00 0.00 0.00 26 1004.2
20260831074547 81 245 0.0 3.0 0.00 0.00 0.00 26 1004.3
20260831074047 81 245 0.0 3.0 0.00 0.00 0.00 26 1004.3
20260831073547 81 245 0.0 2.0 0.00 0.00 0.00 26 1004.3
20260831073049 81 245 0.0 2.0 0.00 0.00 0.00 26 1004.3
20260831072545 81 245 0.0 3.0 0.00 0.00 0.00 26 1004.3
20260831072044 81 245 0.0 3.0 0.00 0.00 0.00 26 1004.3
20260831071544 81 245 0.0 2.0 0.00 0.00 0.00 26 1004.3
20260831071042 82 245 0.0 2.0 0.00 0.00 0.00 25 1004.2
20260831070541 82 245 0.0 1.0 0.00 0.00 0.00 25 1004.2
20260831070040 82 246 0.0 0.0 0.00 0.00 0.00 25 1004.2
20260831065542 83 245 0.0 2.0 0.00 0.00 0.00 24 1004.1
20260831065041 83 245 0.0 3.0 0.00 0.00 0.00 24 1004.0
20260831064540 83 245 0.0 3.0 0.00 0.00 0.00 24 1004.1
20260831064039 83 245 1.0 5.0 0.00 0.00 0.00 24 1004.1
20260831063539 82 246 3.0 5.0 0.00 0.00 0.00 25 1004.1
20260831063038 83 252 1.0 4.0 0.00 0.00 0.00 25 1004.1
20260831062538 83 254 0.0 3.0 0.00 0.00 0.00 24 1004.0
20260831062038 83 254 1.0 3.0 0.00 0.00 0.00 24 1003.9
20260831061537 83 254 0.0 4.0 0.00 0.00 0.00 24 1003.8
20260831061036 84 254 2.0 4.0 0.00 0.00 0.00 24 1003.8
20260831060536 83 254 2.0 4.0 0.00 0.00 0.00 24 1003.8
20260831060036 84 254 2.0 3.0 0.00 0.00 0.00 24 1003.9
20260831055537 84 254 2.0 3.0 0.00 0.00 0.00 24 1004.0
20260831055036 83 254 1.0 3.0 0.00 0.00 0.00 24 1004.0
20260831054536 83 254 1.0 3.0 0.00 0.00 0.00 24 1004.0
20260831054036 83 255 1.0 7.0 0.00 0.00 0.00 24 1004.1
20260831053538 84 255 2.0 7.0 0.00 0.00 0.00 24 1004.0
20260831053035 84 261 1.0 2.0 0.00 0.00 0.00 24 1004.0
20260831052538 84 261 0.0 2.0 0.00 0.00 0.00 24 1004.0
20260831052034 84 261 0.0 2.0 0.00 0.00 0.00 24 1004.0
20260831051540 84 261 0.0 3.0 0.00 0.00 0.00 23 1004.0
20260831051034 85 261 0.0 6.0 0.00 0.00 0.00 23 1004.0
20260831050535 85 261 1.0 6.0 0.00 0.00 0.00 23 1003.9
20260831050034 85 259 0.0 7.0 0.00 0.00 0.00 23 1004.0
20260831045534 85 254 2.0 7.0 0.00 0.00 0.00 23 1004.0
20260831045037 85 244 1.0 4.0 0.00 0.00 0.00 23 1004.0
20260831044542 85 244 1.0 5.0 0.00 0.00 0.00 23 1004.0
20260831044036 85 243 1.0 5.0 0.00 0.00 0.00 23 1004.1
20260831043533 85 238 0.0 3.0 0.00 0.00 0.00 23 1004.1
20260831043033 85 238 0.0 7.0 0.00 0.00 0.00 23 1004.2
20260831042536 85 238 2.0 7.0 0.00 0.00 0.00 23 1004.2
20260831042033 86 219 0.0 5.0 0.00 0.00 0.00 22 1004.1
20260831041544 86 219 1.0 5.0 0.00 0.00 0.00 22 1004.1
20260831041036 86 217 1.0 3.0 0.00 0.00 0.00 22 1004.2
20260831040532 86 217 0.0 4.0 0.00 0.00 0.00 22 1004.2
20260831040033 86 217 1.0 6.0 0.00 0.00 0.00 22 1004.0
20260831035532 87 217 1.0 6.0 0.00 0.00 0.00 21 1004.0
20260831035132 87 226 2.0 6.0 0.00 0.00 0.00 21 1003.9
20260831034532 87 238 2.0 8.0 0.00 0.00 0.00 21 1003.8
20260831034032 87 242 3.0 8.0 0.00 0.00 0.00 21 1003.7
20260831033531 87 227 3.0 8.0 0.00 0.00 0.00 21 1003.6
20260831033032 86 250 3.0 8.0 0.00 0.00 0.00 21 1003.4
20260831032531 86 220 1.0 4.0 0.00 0.00 0.00 21 1003.3
20260831032031 86 219 1.0 4.0 0.00 0.00 0.00 21 1003.3
20260831031530 86 218 0.0 2.0 0.00 0.00 0.00 21 1003.2
20260831031031 86 218 0.0 4.0 0.00 0.00 0.00 20 1003.2
20260831030531 86 217 0.0 4.0 0.00 0.00 0.00 20 1003.2
20260831030030 86 217 0.0 3.0 0.00 0.00 0.00 19 1003.2
20260831025530 87 217 0.0 3.0 0.00 0.00 0.00 19 1003.1
20260831025030 87 217 0.0 3.0 0.00 0.00 0.00 19 1003.1
20260831024530 87 217 0.0 3.0 0.00 0.00 0.00 19 1003.1
20260831024033 87 217 1.0 3.0 0.00 0.00 0.00 19 1003.1
20260831023532 87 217 0.0 2.0 0.00 0.00 0.00 19 1003.0
20260831023029 87 217 0.0 2.0 0.00 0.00 0.00 18 1003.0
20260831022529 87 217 0.0 2.0 0.00 0.00 0.00 18 1003.0
20260831022029 88 217 0.0 3.0 0.00 0.00 0.00 18 1002.9
20260831021536 88 217 0.0 3.0 0.00 0.00 0.00 18 1002.9
20260831021029 88 217 0.0 3.0 0.00 0.00 0.00 18 1002.9
20260831020529 89 217 0.0 3.0 0.00 0.00 0.00 18 1002.9
20260831020028 89 217 1.0 4.0 0.00 0.00 0.00 18 1002.9
20260831015528 89 216 1.0 4.0 0.00 0.00 0.00 18 1002.8
20260831015028 89 216 1.0 6.0 0.00 0.00 0.00 18 1002.8
20260831014528 89 215 2.0 6.0 0.00 0.00 0.00 18 1002.8
20260831014028 90 218 2.0 5.0 0.00 0.00 0.00 18 1002.8
20260831013531 90 215 2.0 6.0 0.00 0.00 0.00 18 1002.9
20260831013028 90 223 3.0 6.0 0.00 0.00 0.00 17 1002.9
20260831012527 90 215 2.0 5.0 0.00 0.00 0.00 18 1002.9
20260831012028 91 257 0.0 6.0 0.00 0.00 0.00 17 1002.9
20260831011526 91 257 0.0 8.0 0.00 0.00 0.00 17 1002.8
20260831011027 91 235 4.0 8.0 0.00 0.00 0.00 17 1002.8
20260831010526 91 228 2.0 7.0 0.00 0.00 0.00 17 1002.8
20260831010026 91 215 3.0 7.0 0.00 0.00 0.00 17 1002.9
20260831005526 91 227 3.0 9.0 0.00 0.00 0.00 17 1002.8
20260831005028 91 205 4.0 9.0 0.00 0.00 0.00 17 1002.8
20260831004526 91 232 4.0 11.0 0.00 0.00 0.00 17 1002.9
20260831004030 91 219 5.0 11.0 0.00 0.00 0.00 17 1002.9
20260831003527 91 234 2.0 9.0 0.00 0.00 0.00 17 1003.0
20260831003026 91 205 4.0 6.0 0.00 0.00 0.00 17 1003.0
20260831002526 91 234 1.0 6.0 0.00 0.00 0.00 17 1003.0
20260831002025 91 240 3.0 8.0 0.00 0.00 0.00 18 1003.0
20260831001525 91 227 4.0 9.0 0.00 0.00 0.00 17 1003.1
20260831001030 91 232 3.0 9.0 0.00 0.00 0.00 17 1003.2
20260831000525 91 209 4.0 8.0 0.00 0.00 0.00 17 1003.2
20260831000036 91 237 4.0 13.0 0.00 0.00 0.00 19 1003.1
20260830235524 91 217 3.0 15.0 0.00 0.00 0.00 19 1003.2
20260830235026 91 196 5.0 10.0 0.00 0.00 0.00 19 1003.3
20260830234525 91 211 3.0 10.0 0.00 0.00 0.00 19 1003.4
20260830234024 91 259 3.0 10.0 0.00 0.00 0.00 19 1003.5
20260830233528 91 250 4.0 10.0 0.00 0.00 0.00 19 1003.5
20260830233033 90 227 2.0 10.0 0.00 0.00 0.00 19 1003.5
20260830232524 90 239 3.0 8.0 0.00 0.00 0.00 20 1003.5
20260830232025 90 196 3.0 10.0 0.00 0.00 0.00 19 1003.6
20260830231529 90 212 5.0 11.0 0.00 0.00 0.00 19 1003.6
20260830231022 90 276 2.0 11.0 0.00 0.00 0.00 19 1003.6
20260830230525 90 254 5.0 15.0 0.00 0.00 0.00 19 1003.8
20260830230022 90 263 5.0 15.0 0.00 0.00 0.00 19 1003.8
20260830225522 90 240 4.0 9.0 0.00 0.00 0.00 19 1003.8
20260830225022 90 208 4.0 12.0 0.00 0.00 0.00 19 1003.8
20260830224522 90 250 2.0 12.0 0.00 0.00 0.00 19 1003.9
20260830224023 90 213 5.0 10.0 0.00 0.00 0.00 19 1004.0
20260830223521 90 227 5.0 10.0 0.00 0.00 0.00 19 1004.0
20260830223022 90 233 4.0 10.0 0.00 0.00 0.00 19 1004.0
20260830222622 90 267 4.0 10.0 0.00 0.00 0.00 19 1004.0
20260830222024 91 243 3.0 10.0 0.00 0.00 0.00 19 1004.1
20260830221520 91 232 5.0 10.0 0.00 0.00 0.00 19 1004.1
20260830221020 90 256 3.0 11.0 0.00 0.00 0.00 19 1004.0
20260830220520 90 246 4.0 11.0 0.00 0.00 0.00 19 1004.0
20260830220020 90 234 4.0 10.0 0.00 0.00 0.00 19 1004.0
20260830215520 89 233 3.0 7.0 0.00 0.00 0.00 20 1004.0
20260830215023 89 234 2.0 10.0 0.00 0.00 0.00 20 1004.1
20260830214519 89 215 4.0 10.0 0.00 0.00 0.00 20 1004.2
20260830214019 89 260 3.0 9.0 0.00 0.00 0.00 20 1004.3
20260830213518 89 197 5.0 14.0 0.00 0.00 0.00 20 1004.3
20260830213020 89 265 3.0 14.0 0.00 0.00 0.00 20 1004.5
20260830212618 89 221 3.0 9.0 0.00 0.00 0.00 20 1004.6
20260830212018 89 215 5.0 10.0 0.00 0.00 0.00 20 1004.6
20260830211519 89 254 5.0 10.0 0.00 0.00 0.00 20 1004.7
20260830211017 89 222 4.0 10.0 0.00 0.00 0.00 19 1004.7
20260830210519 89 241 3.0 14.0 0.00 0.00 0.00 19 1004.7
20260830210027 89 235 6.0 14.0 0.00 0.00 0.00 19 1004.8
20260830205520 89 226 3.0 11.0 0.00 0.00 0.00 19 1004.8
20260830205016 90 261 4.0 10.0 0.00 0.00 0.00 19 1004.8
20260830204521 90 210 5.0 10.0 0.00 0.00 0.00 18 1004.8
20260830204016 90 219 3.0 9.0 0.00 0.00 0.00 18 1004.8
20260830203522 90 240 4.0 10.0 0.00 0.00 0.00 18 1004.8
20260830203016 90 234 2.0 12.0 0.00 0.00 0.00 18 1004.9
20260830202516 90 219 4.0 12.0 0.00 0.00 0.00 18 1004.8
20260830202016 90 258 1.0 8.0 0.00 0.00 0.00 18 1004.9
20260830201516 90 279 2.0 10.0 0.00 0.00 0.00 18 1004.8
20260830201016 90 279 3.0 12.0 0.00 0.00 0.00 17 1004.8
20260830200515 90 271 4.0 12.0 0.00 0.00 0.00 17 1004.8
20260830200015 91 289 3.0 13.0 0.00 0.00 0.00 17 1004.7
20260830195515 91 241 3.0 13.0 0.00 0.00 0.00 17 1004.7
20260830195015 91 265 3.0 13.0 0.00 0.00 0.00 18 1004.9
20260830194520 91 169 6.0 15.0 0.00 0.00 0.00 19 1004.6
20260830194014 90 200 6.0 15.0 0.00 0.00 0.00 19 1004.7
20260830193514 90 154 5.0 14.0 0.00 0.00 0.00 19 1004.6
20260830193016 91 160 4.0 18.0 0.00 0.00 0.00 19 1004.7
20260830192513 91 171 7.0 18.0 0.00 0.00 0.00 19 1004.8
20260830192013 91 182 7.0 14.0 0.00 0.00 0.00 19 1004.8
20260830191518 91 186 1.0 14.0 0.00 0.00 0.00 19 1004.8
20260830191012 91 215 4.0 14.0 0.00 0.00 0.00 19 1004.9
20260830190511 90 210 5.0 14.0 0.00 0.00 0.00 19 1005.0
20260830190011 90 223 5.0 10.0 0.00 0.00 0.00 19 1005.0
20260830185514 90 217 3.0 10.0 0.00 0.00 0.00 19 1005.0
20260830185011 90 204 5.0 12.0 0.00 0.00 0.00 19 1005.0
20260830184510 90 184 4.0 12.0 0.00 0.00 0.00 19 1005.0
20260830184009 90 195 6.0 14.0 0.00 0.00 0.00 19 1005.0
20260830183509 89 203 6.0 16.0 0.00 0.00 0.00 19 1005.1
20260830183009 90 202 6.0 16.0 0.00 0.00 0.00 19 1005.1
20260830182509 90 181 8.0 16.0 0.00 0.00 0.00 19 1005.1
20260830182009 90 194 3.0 10.0 0.00 0.00 0.00 19 1005.2
20260830181509 89 189 5.0 15.0 0.00 0.00 0.00 19 1005.2
20260830181008 90 194 7.0 15.0 0.00 0.00 0.00 19 1005.2
20260830180512 90 143 5.0 12.0 0.00 0.00 0.00 18 1005.1
20260830180007 91 215 6.0 13.0 0.00 0.00 0.00 18 1005.0
20260830175507 91 188 8.0 14.0 0.00 0.00 0.00 18 1005.2
20260830175007 90 234 7.0 11.0 0.00 0.00 0.00 19 1005.1
20260830174506 90 178 6.0 12.0 0.00 0.00 0.00 19 1005.2
20260830174006 90 209 7.0 14.0 0.00 0.00 0.00 19 1005.2
20260830173505 90 182 6.0 14.0 0.00 0.00 0.00 19 1005.1
20260830173005 90 231 1.0 9.0 0.00 0.00 0.00 18 1005.0
20260830172509 90 219 2.0 9.0 0.00 0.00 0.00 18 1005.1
20260830172004 91 259 4.0 9.0 0.00 0.00 0.00 18 1005.1
20260830171503 91 238 3.0 13.0 0.00 0.00 0.00 18 1004.9
20260830171003 91 215 4.0 13.0 0.00 0.00 0.00 18 1004.9
20260830170502 91 242 6.0 9.0 0.00 0.00 0.00 18 1004.8
20260830170002 91 184 3.0 12.0 0.00 0.00 0.00 18 1004.8
20260830165501 91 269 2.0 10.0 0.00 0.00 0.00 18 1004.7
20260830165000 91 244 4.0 12.0 0.00 0.00 0.00 18 1004.7
20260830164610 91 199 6.0 12.0 0.00 0.00 0.00 18 1004.7
20260830164102 91 173 5.0 10.0 0.00 0.00 0.00 18 1004.6
20260830163559 91 229 6.0 11.0 0.00 0.00 0.00 17 1004.7
20260830163100 91 242 4.0 10.0 0.00 0.00 0.00 18 1004.7
20260830162559 90 243 5.0 10.0 0.00 0.00 0.00 18 1004.7
20260830162057 90 236 5.0 11.0 0.00 0.00 0.00 19 1004.8
20260830161609 89 179 4.0 10.0 0.00 0.00 0.00 18 1004.7
20260830161054 89 261 4.0 10.0 0.00 0.00 0.00 19 1004.7
20260830160654 89 209 5.0 10.0 0.00 0.00 0.00 19 1004.6
20260830160053 88 217 4.0 10.0 0.00 0.00 0.00 19 1004.5
20260830155552 88 221 4.0 11.0 0.00 0.00 0.00 19 1004.5
20260830155052 88 229 5.0 11.0 0.00 0.00 0.00 19 1004.5
20260830154551 88 244 2.0 10.0 0.00 0.00 0.00 19 1004.5
20260830154052 87 229 4.0 11.0 0.00 0.00 0.00 19 1004.6
20260830153552 86 223 5.0 14.0 0.00 0.00 0.00 20 1004.7
20260830153049 85 261 6.0 14.0 0.00 0.00 0.00 20 1004.6
20260830152547 85 212 6.0 13.0 0.00 0.00 0.00 20 1004.6
20260830152049 85 242 5.0 12.0 0.00 0.00 0.00 20 1004.6
20260830151548 85 261 6.0 12.0 0.00 0.00 0.00 20 1004.5
20260830151047 85 227 6.0 13.0 0.00 0.00 0.00 20 1004.6
20260830150547 85 226 5.0 13.0 0.00 0.00 0.00 20 1004.5
20260830150047 84 227 4.0 10.0 0.00 0.00 0.00 20 1004.4
20260830145550 84 212 5.0 9.0 0.00 0.00 0.00 20 1004.5
20260830145047 84 225 3.0 10.0 0.00 0.00 0.00 20 1004.6
20260830144546 84 255 4.0 12.0 0.00 0.00 0.00 20 1004.5
20260830144049 85 231 5.0 12.0 0.00 0.00 0.00 20 1004.5
20260830143545 85 233 5.0 11.0 0.00 0.00 0.00 20 1004.5
20260830143102 85 219 4.0 11.0 0.00 0.00 0.00 20 1004.5
20260830142547 85 222 7.0 11.0 0.00 0.00 0.00 20 1004.5
20260830142044 85 216 6.0 12.0 0.00 0.00 0.00 19 1004.4
20260830141544 86 239 5.0 10.0 0.00 0.00 0.00 19 1004.4
20260830141046 85 225 4.0 10.0 0.00 0.00 0.00 20 1004.3
20260830140542 85 214 5.0 10.0 0.00 0.00 0.00 20 1004.2
20260830140048 85 221 6.0 12.0 0.00 0.00 0.00 20 1004.1
20260830135541 85 223 5.0 14.0 0.00 0.00 0.00 20 1004.1
20260830135041 85 224 5.0 13.0 0.00 0.00 0.00 20 1004.0